Regional Weather Roundup
Issued by NWS

Home | Current Version | Previous Version | Text Only | Print | Product List | Glossary On
Versions: 1 2 3 4 5 6 7 8 9 10 11 12 13 14 15 16 17 18 19 20 21 22 23 24 25 26 27
000
ASUS42 KTBW 252217
RWRFL
FLORIDA REGIONAL WEATHER ROUNDUP
NATIONAL WEATHER SERVICE TAMPA BAY RUSKIN FL
600 PM EDT MON JUL 25 2016

NOTE: "FAIR" INDICATES FEW OR NO CLOUDS BELOW 12,000 FEET WITH NO
SIGNIFICANT WEATHER AND/OR OBSTRUCTIONS TO VISIBILITY.

FLZ001>010-012>015-112-114-115-252300-
PANHANDLE FLORIDA

CITY           SKY/WX    TMP DP  RH WIND       PRES   REMARKS
PENSACOLA      MOSUNNY   90  74  59 SE20      29.95F HX  99
PENSACOLA NAS  PTSUNNY   85  72  65 S17G28    29.95S
MILTON NAS     CLOUDY    84  73  69 E9G17     29.97
CRESTVIEW      CLOUDY    79  76  90 E5        29.99S
DUKE FIELD     MOSUNNY   79  74  84 SE5       29.97S
VALPARAISO     MOSUNNY   87  75  67 SE15      29.96F HX  97
MARY ESTHER    PTSUNNY   88  74  61 SE12      29.94F HX  96
PANAMA CITY    LGT RAIN  80  75  84 SE6       29.98S
TYNDALL AFB    MOSUNNY   85  76  72 SE15      29.98S
APALACHICOLA   MOSUNNY   87  78  74 S16       29.99S HX 100

STATION/POSITION SKY/WX   TEMP    WIND        PRES    WAVE   SWELL
                          AIR SEA DIR/SP/G            HT/PER HT/PER
                          (F)     (DEG/KT/KT) (MB)    (FT/S) (FT/S)
30.1N   87.6W              86 89  130/ 17/ 19 1013.7F   4/ 5
29.2N   88.2W              85 88  150/ 14/ 17 1012.8F
28.8N   86.0W              83 88  180/ 19/ 21 1014.6    3/ 4
PANAMA CITY BEAC           84 88  120/ 14/ 16 1015.5F
TOWER C                    81     180/ 10/ 12 1016.5R
28.5N   84.5W              83 87  190/ 12/ 14 1016.0R   3/ 5

$$
FLZ011-016>038-118-127-128-134-139-239-252300-
NORTH FLORIDA

CITY           SKY/WX    TMP DP  RH WIND       PRES   REMARKS
MARIANNA       MOSUNNY   89  73  59 S9        29.97F HX  97
TALLAHASSEE    MOSUNNY   91  73  55 S13G18    30.00S HX  99
PERRY          CLOUDY    79  74  84 S6        30.02F
LIVE OAK       FAIR      95  70  43 SW6       30.01S HX 101
CROSS CITY       N/A     86  77  74 CALM      30.01S HX  97
LAKE CITY      FAIR      91  68  46 S6        30.00S HX  95
GAINESVILLE    CLOUDY    90  69  50 S10       30.00S
WILLISTON      FAIR      82  73  74 W6        30.00F
PALATKA        PTSUNNY   84  73  70 S7        30.04R
MAYPORT NAS    MOSUNNY   88  72  58 SE16      30.02F
JACKSONVILLE   MOSUNNY   91  71  51 SE14G24   30.00S HX  97
JAX NAS        MOSUNNY   92  70  48 SE18      30.01F HX  97
JAX CECIL      MOSUNNY   91  73  55 SE12      30.00S HX 100
FERNANDINA BEA FAIR      90  73  58 SE13      30.01F HX  98
ST AUGUSTINE   MOSUNNY   88  74  63 SE17      30.04S HX  96
PALM COAST     SUNNY     84  73  70 SE10      30.03S

STATION/POSITION SKY/WX   TEMP    WIND        PRES    WAVE   SWELL
                          AIR SEA DIR/SP/G            HT/PER HT/PER
                          (F)     (DEG/KT/KT) (MB)    (FT/S) (FT/S)
SHELL POINT                87     170/ 13/ 17 1014.8
KEATON BEACH               84     210/ 11/ 13 1016.0F
CEDAR KEY                  87     230/  4/  7 1016.7R
FERNANDINA                 89 89  140/  8/ 14 1016.8F
30.7N   81.3W                 86                N/A     2/ 9
MAYPORT                    86 86  130/  9/ 15 1017.3F
31.4N   80.9W              85 88  150/ 10/ 12 1017.0F   2/ 9   2/ 9
ST AUGUSTINE               83 88  140/ 16/ 18 1017.8S

$$
FLZ040-043>046-052-053-057-058-063-144-252300-
INTERIOR CENTRAL FLORIDA

CITY           SKY/WX    TMP DP  RH WIND       PRES   REMARKS
OCALA          PTSUNNY   91  66  43 S12       30.00R
THE VILLAGES     N/A     90  70  51 MISG      29.91R HX  95
LEESBURG       MOSUNNY   90  73  57 E10       30.02S HX  98
SANFORD        CLOUDY    87  74  64 E14       30.01F HX  95
ORLANDO EXEC   CLOUDY    91  70  49 S7        30.00F HX  96
ORLANDO INTL   MOSUNNY   92  66  42 SE10      30.00F
KISSIMMEE      MOSUNNY   90  71  53 SE7       30.02S HX  96
WINTER HAVEN   SUNNY     91  66  43 CALM      30.02S
LAKELAND       PTSUNNY   90  70  51 CALM      30.01S HX  95
BARTOW         FAIR      86  68  54 CALM      30.01F
OKEECHOBEE     MOSUNNY   81  73  78 E6        30.02F

$$
FLZ041-047-054-059-064-141-147-252300-
EAST CENTRAL FLORIDA

CITY           SKY/WX    TMP DP  RH WIND       PRES   REMARKS
ORMOND BEACH   MOSUNNY   84  72  65 SE12      30.03S
DAYTONA BEACH  CLOUDY    85  73  67 E10       30.03S
NEW SMYRNA BEA MOSUNNY   84  73  70 E12       30.04F
JFK SPACE CTR  SUNNY     88  72  59 SE9       30.01F HX  95
TITUSVILLE     MOSUNNY   88  70  55 SE16      30.03S
CAPE CANAVERAL SUNNY     88  73  61 SE15G21   30.02S HX  96
MELBOURNE      LGT RAIN  81  75  82 SE8       30.01F
VERO BEACH     CLOUDY    87  73  62 SE14      30.02F
FT PIERCE      CLOUDY    85  75  72 E12       30.03F
STUART         MOSUNNY   90  77  66 SE13      30.03F HX 102

STATION/POSITION SKY/WX   TEMP    WIND        PRES    WAVE   SWELL
                          AIR SEA DIR/SP/G            HT/PER HT/PER
                          (F)     (DEG/KT/KT) (MB)    (FT/S) (FT/S)
28.5N   80.2W              84 86  140/ 12/ 14 1017.5F
28.9N   78.5W              85 87  160/  6/  8 1017.8F
TRIDENT PIER               88 88  110/  8/ 13 1017.2F
28.4N   80.5W                 87                N/A     2/ 8
27.5N   80.2W                 86                N/A     2/ 8

$$
FLZ050-056-061-142-242-148-248-149-249-151-251-155-255-
160-260-252300-
WEST CENTRAL FLORIDA

CITY           SKY/WX    TMP DP  RH WIND       PRES   REMARKS
CRYSTAL RIVER  CLOUDY    88  72  58 S6        30.01S
INVERNESS      CLOUDY    88  73  62 SW3       30.01R HX  96
BROOKSVILLE    SUNNY     83  73  72 W10       30.03R
ZEPHYRHILLS    FAIR      86  65  49 S6        30.01S
CLEARWATER AIR PTSUNNY   82  75  78 NW3       30.01S
ST PETE CLEARW HVY RAIN  80  67  64 E14G20    30.02R
TAMPA INTL     CLOUDY    87  76  69 S14       30.01F HX  97
TAMPA EXEC     MOSUNNY   86  70  58 S8        30.01F
PLANT CITY     SUNNY     90  75  62 W9        30.03S HX 100
MACDILL AFB    CLOUDY    83  75  76 SW5       30.01F
PETER O KNIGHT CLOUDY    88  77  70 SW10      30.01F HX 100
ST PETERSBURG  PTSUNNY   86  75  69 S9        29.99S HX  95
SARASOTA       SUNNY     89  74  60 W7        29.99F HX  98
VENICE         NOT AVBL

STATION/POSITION SKY/WX   TEMP    WIND        PRES    WAVE   SWELL
                          AIR SEA DIR/SP/G            HT/PER HT/PER
                          (F)     (DEG/KT/KT) (MB)    (FT/S) (FT/S)
27.3N   84.2W                 86                N/A     3/ 5
CLEARWATER BEACH           83 87   20/  4/  8 1016.7S
MIDDLE TAMPA BAY                  130/  8/ 12 1016.8F
VENICE                     87 89  210/  7/  8 1015.6R

$$
FLZ066-069-070-075>078-162-262-165-265-252300-
SOUTHWEST FLORIDA AND KEYS

CITY           SKY/WX    TMP DP  RH WIND       PRES   REMARKS
PUNTA GORDA    MOSUNNY   83  75  77 SW7       30.03S
FT MYERS       CLOUDY    87  71  58 S9        30.00F
SOUTHWEST INTL CLOUDY    83  70  64 SE7       30.01F
NAPLES         MOSUNNY   85  76  74 NE3       30.01S
MARCO ISLAND   SUNNY     88  73  62 CALM      30.01S HX  96
MARATHON       SUNNY     88  75  65 VRB7      30.00F HX  97
KEY WEST NAS   MOSUNNY   88  77  69 E12       29.99F HX 100
KEY WEST INTL  SUNNY     88  78  72 E10       30.00F HX 101

STATION/POSITION SKY/WX   TEMP    WIND        PRES    WAVE   SWELL
                          AIR SEA DIR/SP/G            HT/PER HT/PER
                          (F)     (DEG/KT/KT) (MB)    (FT/S) (FT/S)
NAPLES                        87              1016.3F
26.0N   85.6W              83 87  250/  6/ 10 1016.2F   2/ 5   2/ 5
DRY TORTUGAS               85     110/  6/  7 1015.9F
SAND KEY                   85     130/ 12/ 14 1016.1F
LONG KEY                   85 87   80/  8/ 10 1016.4F

$$
FLZ067-068-071>074-168-172>174-252300-
SOUTHEAST FLORIDA

CITY           SKY/WX    TMP DP  RH WIND       PRES   REMARKS
W PALM BEACH   MOSUNNY   88  74  63 SE15      30.03S HX  96
BOCA RATON     SUNNY     86  75  70 SE12G17   30.02S HX  95
FT LAUDER-EXEC SUNNY     88  72  58 SE10      30.02S
FT LAUDERDALE  MOSUNNY   88  76  67 SE15      30.01F HX  99
POMPANO BEACH  SUNNY     88  75  65 E13       30.02F HX  97
PEMBROKE PINES MOSUNNY   89  76  65 SE10      30.02F HX 100
OPA LOCKA      SUNNY     89  72  56 SE16      30.02S HX  96
MIAMI          MOSUNNY   88  73  61 SE15      30.01F HX  95
WEST KENDALL   MOSUNNY   88  75  65 SE12      30.01F HX  97
HOMESTEAD      SUNNY     89  76  67 E8        30.01F HX 100

STATION/POSITION SKY/WX   TEMP    WIND        PRES    WAVE   SWELL
                          AIR SEA DIR/SP/G            HT/PER HT/PER
                          (F)     (DEG/KT/KT) (MB)    (FT/S) (FT/S)
PORT EVERGLADES            87     120/  6/ 11 1016.9F
VIRGINIA KEY               86 88  130/ 10/ 11 1017.2F
LAKE WORTH                        140/ 11/ 14   N/A
FOWEY ROCKS                85 85  110/ 10/ 11 1016.8F
SETTLEMENT POINT           85      50/  3/  3 1018.0S

$$





USA.gov is the U.S. government's official web portal to all federal, state and local government web resources and services.